Miscellaneous Local Product
Issued by NWS Hastings, NE

Home | Current Version | Previous Version | Graphics & Text | Print | Product List | Glossary On
Versions: 1 2 3 4 5 6 7 8 9 10 11 12 13 14 15 16 17 18 19 20 21 22 23 24 25 26 27 28 29 30 31 32 33 34 35 36 37 38 39 40 41 42 43 44 45 46 47 48 49 50
000
AXUS43 KGID 221002
MISGRI

GID CWA HOURLY WEATHER ROUNDUP
NATIONAL WEATHER SERVICE HASTINGS NE
500 AM CDT TUE JUL 22 2014

NOTE: "FAIR" INDICATES FEW OR NO CLOUDS BELOW 12,000 FEET WITH NO
SIGNIFICANT WEATHER AND/OR OBSTRUCTIONS TO VISIBILITY.

...SOUTH CENTRAL NEBRASKA...

CITY           SKY/WX    TMP DP  RH WIND       PRES   REMARKS
GRAND ISLAND   MOCLDY    81  66  60 W12       29.97R
HASTINGS         N/A     74  66  76 SW5       29.99R
KEARNEY        CLOUDY    79  63  57 SW10      30.00R
ORD            NOT AVBL
YORK           PTCLDY    77  72  83 NW8       29.95R
AURORA         MOCLDY    79  72  78 W8        29.96R
LEXINGTON      MOCLDY    72  64  76 NW13      30.07R
HOLDREGE       PTCLDY    71  62  74 W5        30.01S
HEBRON         CLEAR     75  67  77 W3        29.97R

...NEBRASKA PANHANDLE...

CITY           SKY/WX    TMP DP  RH WIND       PRES   REMARKS
CHADRON        PTCLDY    66  61  84 NE3       30.13S
ALLIANCE       CLEAR     70  61  73 NE13      30.13R
SCOTTSBLUFF    CLEAR     70  58  65 NE17      30.13R
SIDNEY         CLEAR     68  50  52 N15G26    30.14R

...WESTERN AND NORTH CENTRAL NEBRASKA...

CITY           SKY/WX    TMP DP  RH WIND       PRES   REMARKS
VALENTINE      CLOUDY    71  65  81 CALM      30.11R
AINSWORTH      CLOUDY    69  63  81 CALM      30.08R
ONEILL         MOCLDY    75  57  54 N24G31    30.04R
BROKEN BOW     PTCLDY    78  58  49 N22       30.04R
IMPERIAL       PTCLDY    68  60  75 W7        30.02F
NORTH PLATTE   PTCLDY    74  60  61 NW7       30.06R
MCCOOK         CLEAR     68  63  84 W7        30.02S

...EASTERN NEBRASKA...

CITY           SKY/WX    TMP DP  RH WIND       PRES   REMARKS
NORFOLK        PTCLDY    78  67  68 W9G20     29.94R
SO SIOUX CITY  CLEAR     77  73  87 NW7       29.87R
TEKAMAH        MOCLDY    82  72  71 S9        29.88R
COLUMBUS       MOCLDY    79  68  69 SW5       29.94R
ALBION         PTCLDY    74  65  74 NW5       29.96R
OMAHA EPPLEY   CLOUDY    87  69  54 S7        29.90R HX  91
OFFUTT AFB     CLOUDY    81  73  76 CALM      29.90R
MILLARD        CLOUDY    85  71  61 SW8       29.90R HX  90
LINCOLN        PTCLDY    80  68  66 CALM      29.94R
NEBRASKA CITY  MOCLDY    79  72  78 SW14      29.92R
BEATRICE       CLEAR     71  68  90 S5        29.95S
FALLS CITY     PTCLDY    78  74  87 S6        29.93F

...NORTHERN KANSAS...

CITY           SKY/WX    TMP DP  RH WIND       PRES   REMARKS
GOODLAND       CLEAR     66  60  81 VRB7G20   30.10R
HILL CITY      CLEAR     70  60  70 W3        30.02S
NORTON         SUNNY     68  57  68 W5        30.03R
PHILLIPSBURG   CLEAR     70  63  78 W3        30.01R
SMITH CENTER   CLEAR     68  66  94 CALM      30.02R
HAYS           CLEAR     70  59  68 S3        30.02R
RUSSELL        PTCLDY    70  67  90 SE5       30.00R
CONCORDIA      CLEAR     77  72  84 SW12      29.98R
SALINA         CLEAR     75  71  87 S6        29.99R
TOPEKA         CLEAR     80  75  84 S7        29.98R



USA.gov is the U.S. government's official web portal to all federal, state and local government web resources and services.